Location: Goettingen
(51.5300°N, 9.9433°E)
Time: 09:53:30
(UTC+02:00)

ISS - Pass Details

Date: 11 May 2025
Orbit: 416 x 419 km, 51.6° (Epoch: 18 May)

Event Time Altitude Azimuth Distance (km) Brightness Sun altitude
Rises 22:11:10 0° 231° (SW) 2,352 0.1 -9.5°
Reaches altitude 10° 22:13:20 10° 223° (SW) 1,491 -1.0 -9.7°
Maximum altitude 22:16:28 38° 153° (SSE) 650 -3.3 -10.0°
Drops below altitude 10° 22:19:37 10° 84° (E) 1,496 -1.3 -10.4°
Sets 22:21:47 0° 76° (ENE) 2,361 -0.2 -10.6°
